Location: Balsareny
(41.8670°N, 1.8830°E)
Time: 11:28:56
(UTC+01:00)

Envisat - Pass Details

Date: 08 December 2021
Orbit: 764 x 766 km, 98.2° (Epoch: 15 January)

Event Time Altitude Azimuth Distance (km) Brightness Sun altitude
Rises 05:43:35 0° 15° (NNE) 3,240 6.3 -26.0°
Reaches altitude 10° 05:45:55 10° 18° (NNE) 2,309 5.6 -25.5°
Maximum altitude 05:51:00 70° 102° (ESE) 814 3.2 -24.6°
Drops below altitude 10° 05:56:02 10° 186° (S) 2,292 5.5 -23.7°
Sets 05:58:20 0° 188° (S) 3,213 6.3 -23.3°
